www.pogodaiklimat.ru

Погода и климат >> Архив погоды >> Южная Африка >> Ламбертс-Бей


ПОГОДА в Ламбертс-Бей

  • Прогноз погоды в Ламбертс-Бей
  • Монитор погоды в Ламбертс-Бей

АРХИВ ПОГОДЫ в Ламбертс-Бей

Время (UTC), дата Ветер
(напр.,м/с)
 
Видим.   Явления Облачность Т
(С)
Тd
(С)
f
(%)
Тe
(С)
Тes
(С)
Комфортность P
(гПа)
Po
(гПа)
Тmin
(С)
Tmax
(С)
R
(мм)
R24
(мм)
S
(см)
21 10.06 В 3 н/о н/о +11.7 +11.5 99 +10 +10 1022.3 1010.9 +11.5 +16.4
00 11.06 В 3 н/о н/о +11.2 +11.1 99 +9 +9 1021.7 1010.3 +10.9 +16.4 2
03 11.06 В 3 н/о н/о +10.7 +10.6 99 +9 +9 1019.9 1008.5 +10.2 +16.4
06 11.06 ЮВ 2 н/о н/о +10.5 +10.2 98 +9 +9 1019.9 1008.5 +9.7 2
09 11.06 СВ 4 н/о н/о +19.2 +9.5 53 +20 +20 1018.2 1007.1 +9.7 +19.2
12 11.06 З 2 н/о н/о +18.8 +11.4 62 +20 +20 1017.7 1006.6 +9.7 +23.5
15 11.06 ЮЗ 3 н/о н/о +14.3 +12.7 90 +13 +13 1018.1 1006.8 +13.8 +23.5
18 11.06 В 3 н/о н/о +11.4 +10.9 97 +10 +10 1019.2 1007.8 +11.4 +23.5
21 11.06 С 4 н/о н/о +11.5 +11.1 97 +9 +9 1020.9 1009.5 +9.8 +23.5
00 12.06 С 2 н/о н/о +13.1 +12.4 96 +12 +12 1022.2 1010.9 +9.8 +23.5 0.4
03 12.06 СЗ 2 н/о н/о +12.9 +12.4 97 +12 +12 1022.9 1011.5 +9.8 +23.5
06 12.06 ЮЗ 3 н/о н/о +12.0 +11.0 94 +10 +10 1024.8 1013.4 +9.8 0.4
09 12.06 ЮЗ 3 н/о н/о +16.0 +9.9 67 +16 +16 1027.1 1015.8 +9.8 +16.0
12 12.06 ЮЗ 2 н/о н/о +18.1 +10.5 61 +19 +19 1027.2 1016.0 +9.8 +18.2
15 12.06 ЮЗ 3 н/о н/о +14.5 +9.5 72 +14 +14 1028.4 1017.0 +14.5 +18.4
18 12.06 Ю 2 н/о н/о +9.5 +8.1 91 +8 +8 1029.9 1018.3 +9.5 +18.4
21 12.06 В 3 н/о н/о +8.4 +6.2 86 +6 +6 1031.0 1019.4 +8.0 +18.4
00 13.06 В 3 н/о н/о +7.6 +5.5 87 +5 +5 1032.7 1021.0 +7.6 +18.4
03 13.06 В 4 н/о н/о +6.5 +4.6 88 +3 +3 1032.7 1021.0 +6.3 +18.4
06 13.06 В 4 н/о н/о +7.6 +4.3 80 +4 +4 1032.9 1021.2 +6.2
09 13.06 В 6 н/о н/о +15.1 +4.5 49 +14 +14 1032.1 1020.7 +6.2 +15.1
12 13.06 В 2 н/о н/о +19.1 +1.2 30 +20 +20 1030.1 1018.9 +6.2 +19.1
15 13.06 ЮЗ 3 н/о н/о +14.8 +6.9 59 +14 +14 1028.6 1017.3 +14.6 +19.3
18 13.06 ЮВ 3 н/о н/о +10.5 +4.4 66 +9 +9 1028.9 1017.4 +10.5 +19.3
21 13.06 В 5 н/о н/о +9.9 +3.2 63 +7 +7 1028.9 1017.4 -25.3 +19.3
00 14.06 В 4 н/о н/о +10.5 -0.5 46 +8 +8 1027.3 1015.8 -25.3 +19.3
03 14.06 В 5 н/о н/о +10.5 -1.8 42 +8 +8 1027.1 1015.6 -25.3 +19.3
06 14.06 В 4 н/о н/о +9.5 -1.5 46 +7 +7 1027.7 1016.2 -25.3
09 14.06 В 7 н/о н/о +19.5 -3.2 21 +19 +19 1026.6 1015.5 -25.3 +19.5
12 14.06 В 6 н/о н/о +23.2 -2.9 17 +22 +22 комфорт 1023.5 1012.5 +4.3 +23.2
15 14.06 В 3 н/о н/о +23.2 -2.9 17 +22 +22 комфорт 1022.1 1011.1 +23.2 +24.9
18 14.06 В 5 н/о н/о +15.7 -2.6 28 +15 +15 1022.0 1010.8 +15.1 +24.9
21 14.06 СВ 3 н/о н/о +15.9 -4.5 24 +16 +16 1021.5 1010.3 +12.9 +24.9
00 15.06 СВ 3 н/о н/о +15.3 -5.6 23 +15 +15 1021.4 1010.2 +12.9 +24.9
03 15.06 СВ 3 н/о н/о +15.3 -6.2 22 +15 +15 1020.5 1009.3 +12.9 +24.9
06 15.06 СВ 3 н/о н/о +13.4 -5.6 26 +13 +13 1021.7 1010.4 +12.9
09 15.06 С 5 н/о н/о +20.8 -4.9 17 +20 +20 1022.3 1011.3 +12.9 +20.8
12 15.06 ЮЗ 3 н/о н/о +19.2 +2.2 32 +20 +20 1021.3 1010.2 +12.9 +23.2
15 15.06 ЮЗ 3 н/о н/о +15.6 +2.8 42 +15 +15 1019.8 1008.6 +15.6 +23.2
18 15.06 В 4 н/о н/о +13.4 +1.4 44 +12 +12 1021.0 1009.7 +12.7 +23.2
21 15.06 В 4 н/о н/о +10.6 +1.7 54 +9 +9 1020.3 1008.9 +10.1 +23.2
00 16.06 В 3 н/о н/о +10.6 0.0 48 +9 +9 1020.7 1009.3 +8.9 +23.2
03 16.06 СВ 2 н/о н/о +9.5 -1.2 47 +9 +9 1019.6 1008.1 +8.5 +23.2
06 16.06 СВ 4 н/о н/о +13.1 -3.5 31 +12 +12 1019.2 1007.9 +8.5
09 16.06 СВ 4 н/о н/о +22.6 -2.7 18 +21 +21 комфорт 1018.7 1007.8 +8.5 +22.6
12 16.06 С 3 н/о н/о +28.3 -1.4 14 +26 +26 жарко 1016.4 1005.7 +8.5 +28.5
15 16.06 Ю 2 н/о н/о +20.5 +2.9 31 +22 +22 комфорт 1016.5 1005.5 +20.4 +28.8
18 16.06 В 4 н/о н/о +17.3 -0.7 29 +17 +17 1017.4 1006.3 +16.3 +28.8
21 16.06 СЗ 2 н/о н/о +14.0 -0.0 38 +14 +14 1018.9 1007.6 +12.1 +28.8
00 17.06 С 2 н/о н/о +10.5 +0.5 50 +10 +10 1018.8 1007.4 +10.5 +28.8
03 17.06 В 4 н/о н/о +11.4 +2.9 56 +10 +10 1018.5 1007.1 +9.6 +28.8
06 17.06 СВ 2 н/о н/о +13.7 0.0 39 +13 +13 1018.9 1007.6 +9.6
09 17.06 Ю 2 н/о н/о +19.0 +4.5 38 +20 +20 1021.2 1010.1 +9.6 +19.0
12 17.06 ЮЗ 2 н/о н/о +21.4 +6.6 38 +22 +22 комфорт 1020.2 1009.2 +9.6 +22.2
15 17.06 ЮВ 2 н/о н/о +17.5 +8.2 54 +18 +18 1019.9 1008.8 +15.8 +22.6
18 17.06 В 5 н/о н/о +15.3 +3.2 44 +14 +14 1021.0 1009.8 +13.4 +22.6

 

Местоположение метеостанции Ламбертс-Бей (Южная Африка): широта -32.03 долгота 18.33 высота над уровнем моря 94 м.

В архиве по умолчанию представлена погода в Ламбертс-Бей за последнюю неделю. Архивные данные за месяц целиком и за предыдущие месяцы, начиная с января 2011 года, Вы можете получить, выбрав интересующий диапазон дат из раскрывающегося списка и нажав кнопку "Ввод!".


*Определитесь, кто Вы:
робот инопланетянин человек

Внимание! Время в таблицах - всемирное. Для получения местного времени необходимо прибавить поправку, которая равна 2 ч.

Смотрите также архив погоды в соседних городах и на ближайших метеорологических станциях:

Погода в Фридендале (Южная Африка) (44 км)
Погода в Клануильяме (Южная Африка) (55 км)
Погода на Мысе Колумбайн (Южная Африка) (100 км)
Погода в Лангебаанвеге (Южная Африка) (105 км)
Погода в Ниеувоудтвилле (Южная Африка) (105 км)
Погода в Лангебане (Южная Африка) (120 км)
Погода в Гилбеке (Южная Африка) (132 км)
Погода на Станции Excelsior Ceres (Южная Африка) (146 км)
Погода в Кальвинии (Южная Африка) (150 км)
Погода в Малмсбери (Южная Африка) (163 км)

Пояснения к столбцам:

Ветер - указаны скорость ветра в м/с - средняя за 10 мин, порывы в срок и между сроками (в фигурных скобках) и направление, откуда дует ветер: С - северный, СВ - северо-восточный, В - восточный, ЮВ - юго-восточный, Ю - южный, ЮЗ - юго-западный, З - западный, СЗ - северо-западный.
Видимость - горизонтальная дальность видимости в метрах или километрах. При видимости от 1 до 10 км при отсутствии осадков обычно наблюдается дымка, при ухудшении видимости до 1 км и менее - туман. В сухую погоду видимость может ухудшаться дымом, пылью или мглою.
Явления - указаны атмосферные явления, наблюдавшиеся в срок или в последний час перед сроком; фигурными скобками обозначены явления, наблюдавшиеся между сроками (за 1-3 часа до срока); квадратными скобками обозначены град или гололедные отложения с указанием их диаметра в мм.
Облачность - указаны через наклонную черту общая и нижняя облачность в баллах и высота нижней границы облаков в метрах; квадратными скобками обозначены формы облаков: Ci - перистые, Cs - перисто-слоистые, Cc - перисто-кучевые, Ac - высококучевые, As - высокослоистые, Sc - слоисто-кучевые, Ns - слоисто-дождевые, Cu - кучевые, Cb - кучево-дождевые. Подробнее классификацию облаков см. в Атласе облаков (PDF).
T - Температура воздуха - температура, измеренная на высоте 2 м над землей.
Td - Температура точки росы - температура, при понижении до которой содержащийся в воздухе водяной пар достигнет насыщения.
f - Относительная влажность воздуха - влажноcть воздуха, измеренная на высоте 2 м над землей.
Te - Эффективная температура - температура, которую ощущает одетый по сезону человек в тени. Характеристика душности погоды. При расчете учитывается влияние влажности воздуха и скорости ветра на теплоощущения человека.
Tes - Эффективная температура на солнце - температура, которую ощущает человек, с поправкой на солнечный нагрев. Характеристика знойности погоды. Зависит от высоты солнца над горизонтом, облачности и скорости ветра. Ночью, в пасмурную погоду, а также при ветре 12 м/с и более поправка равна нулю.
P - Атмосферное давление - приведенное к уровню моря атмосферное давление.
Po - Атмосферное давление - измеренное на уровне метеостанции атмосферное давление.
Tmin - Минимальная температура - минимум температуры воздуха на высоте 2 м над землей.
Tmax - Максимальная температура - максимум температуры воздуха на высоте 2 м над землей.
R - Количество осадков - Количество выпавших осадков за период времени, мм. При наведении курсора мыши на число - период времени, за который выпало указанное количество осадков.
R24 - Количество осадков - Количество выпавших осадков за 24 часа, мм.
S - Снежный покров - Высота снежного покрова, см. При наведении курсора мыши на число - состояние снежного покрова и степень покрытия местности в баллах.